Home > Weather > Boké > Past weeks

Flag for Guinea Past Weather in Boké, Guinea — Yesterday and Last 2 Weeks

Now
75 °F

Light rain. Mostly cloudy.


Feels Like: 73 °F
Forecast: 74 / 85 °F
Wind: 5 mph from Northeast

Location: Conakry / Gbessia

Current Time: Aug 26, 2016 at 6:58:50 AM

Latest Report: Aug 26, 2016 at 6:00 AM


Visibility: 5 mi

Pressure: 29.86 "Hg

Humidity: 100%

Dew Point: 75 °F

Location of BokéLocation

Past Weather in Boké — Graph

°F

Boké Temperature Yesterday

Maximum temperature yesterday: 84 °F (at 3:00 PM)
Minimum temperature yesterday: 75 °F (at 12:00 AM)
Average temperature yesterday: 79 °F

High & Low Weather Summary for the Past Weeks

 TemperatureHumidityPressure
High86 °F (Aug 23, 3:00 PM)100% (Aug 11, 6:00 PM)30.01 "Hg (Aug 11, 6:00 PM)
Low72 °F (Aug 20, 5:00 AM)66% (Aug 21, 5:00 PM)29.83 "Hg (Aug 20, 4:00 PM)
Average78 °F92%29.92 "Hg
* Reported Aug 11 6:00 PM — Aug 26 5:00 AM, Boké, Weather by CustomWeather, © 2016

Note: Actual official high and low records may vary slightly from our data, if they occured in-between our weather recording intervals... More about our weather records

Advertising

Boké Weather History for the Previous 24 Hours

Scroll right to see more
 ConditionsComfort  
Time TempWeatherWind HumidityBarometerVisibility
5:00 AM
Fri, Aug 26
75 °FLight rain. Mostly cloudy.5 mph100%29.86 "Hg5 mi
4:00 AM75 °FThunderstorms. Passing clouds.5 mph100%29.86 "Hg5 mi
3:00 AM75 °FThunderstorms. Passing clouds.7 mph100%29.86 "Hg5 mi
2:00 AM75 °FLight rain. Passing clouds.5 mph100%29.89 "Hg5 mi
1:00 AM77 °FLight rain. Passing clouds.5 mph100%29.89 "Hg5 mi
12:00 AM77 °FPartly cloudy.No wind94%29.92 "HgN/A
11:00 PM
Thu, Aug 25
77 °FPartly cloudy.No wind94%29.92 "HgN/A
10:00 PM77 °FPassing clouds.No wind94%29.92 "HgN/A
9:00 PM77 °FPassing clouds.No wind94%29.89 "HgN/A
8:00 PM79 °FPassing clouds.5 mph94%29.89 "HgN/A
7:00 PM79 °FPartly sunny.5 mph89%29.86 "HgN/A
6:00 PM79 °FPartly sunny.9 mph89%29.83 "HgN/A
5:00 PM81 °FPartly sunny.12 mph84%29.86 "HgN/A
4:00 PM82 °FPartly sunny.12 mph79%29.86 "HgN/A
3:00 PM84 °FBroken clouds.9 mph74%29.86 "HgN/A
2:00 PM82 °FBroken clouds.7 mph74%29.86 "HgN/A
1:00 PM82 °FBroken clouds.7 mph79%29.89 "HgN/A
12:00 PM82 °FBroken clouds.7 mph74%29.89 "HgN/A
11:00 AM81 °FScattered clouds.2 mph79%29.92 "HgN/A
10:00 AM79 °FScattered clouds.5 mph89%29.89 "HgN/A
9:00 AM77 °FBroken clouds.7 mph94%29.89 "HgN/A
8:00 AM77 °FPartly sunny.No wind100%29.89 "HgN/A
7:00 AM75 °FPartly sunny.5 mph100%29.89 "HgN/A
6:00 AM75 °FPassing clouds.No wind100%29.89 "HgN/A
Weather by CustomWeather, © 2016

See weather overviewHow to use our weather pages